This demonstration page uses our WeatherBlox Daily Observations layout. Learn more.

Left ArrowRight Arrow

Hourly Observations for October 6, 2022

Temp ( °F °C ) Dew Point ( °F °C ) Humidity (%) Winds ( mph kmh ) Pressure ( in mb ) Visibility ( mi km ) Precip ( " mm )
12:51 am 00:51 Clear 63 17.2 56 13.3 78 78 SE 5 7 30.00 1016 10 16 0.00 0.00
1:51 am 01:51 Clear 63 17.2 55 12.8 75 75 SE 10 17 30.01 1016 10 16 0.00 0.00
2:51 am 02:51 Clear 62 16.7 54 12.2 75 75 E 8 13 30.02 1017 10 16 0.00 0.00
3:51 am 03:51 Clear 60 15.6 55 12.8 83 83 E 7 11 30.03 1017 10 16 0.00 0.00
4:51 am 04:51 Clear 59 15 55 12.8 87 87 SSE 6 9 30.05 1018 10 16 0.00 0.00
5:51 am 05:51 Clear 60 15.6 55 12.8 83 83 SE 8 13 30.07 1018 10 16 0.00 0.00
6:51 am 06:51 Sunny 61 16.1 54 12.2 78 78 E 13 20 30.08 1019 10 16 0.00 0.00
7:51 am 07:51 Sunny 63 17.2 54 12.2 72 72 E 12 19 30.10 1019 10 16 0.00 0.00
8:51 am 08:51 Sunny 67 19.4 53 11.7 61 61 ESE 12 19 30.10 1019 10 16 0.00 0.00
9:51 am 09:51 Sunny 69 20.6 54 12.2 59 59 SE 6 9 30.10 1019 10 16 0.00 0.00
10:51 am 10:51 Sunny 74 23.3 55 12.8 52 52 SE 6 9 30.08 1019 10 16 0.00 0.00
11:51 am 11:51 Mostly Sunny 76 24.4 54 12.2 47 47 SE 10 17 30.06 1018 10 16 0.00 0.00
12:51 pm 12:51 Sunny 77 25 54 12.2 45 45 VRB 6 9 30.02 1017 10 16 0.00 0.00
1:51 pm 13:51 Sunny 77 25 53 11.7 43 43 VRB 6 9 29.98 1015 10 16 0.00 0.00
2:51 pm 14:51 Mostly Sunny 80 26.7 53 11.7 39 39 E 10 17 29.96 1015 10 16 0.00 0.00
3:51 pm 15:51 Mostly Sunny 79 26.1 52 11.1 39 39 E 8 13 29.96 1015 10 16 0.00 0.00
4:51 pm 16:51 Sunny 76 24.4 53 11.7 45 45 E 7 11 29.96 1015 10 16 0.00 0.00
5:51 pm 17:51 Sunny 74 23.3 54 12.2 50 50 ENE 8 13 29.98 1015 10 16 0.00 0.00
6:25 pm 18:25 Mostly Cloudy with Nearby Thunderstorms 74 23.3 53 11.7 48 48 ENE 9 15 29.93 1014 10 16 0.00 0.00
6:36 pm 18:36 Mostly Cloudy with Thunderstorms 74 23.3 53 11.7 48 48 ENE 10 17 29.93 1014 10 16 0.00 0.00
6:51 pm 18:51 Mostly Cloudy with Thunderstorms 72 22.2 54 12.2 53 53 SSE 8 13 30.01 1016 10 16 0.00 0.00
7:12 pm 19:12 Cloudy with Light Rain 72 22.2 55 12.8 55 55 VRB 5 7 29.96 1015 10 16 0.01 0.13
7:23 pm 19:23 Cloudy with Nearby Thunderstorms 69 20.6 58 14.4 68 68 NE 3 6 29.98 1015 10 16 0.01 0.25
7:51 pm 19:51 Mostly Cloudy 69 20.6 58 14.4 68 68 N 3 6 30.03 1017 10 16 0.01 0.25
8:51 pm 20:51 Mostly Cloudy 68 20 55 12.8 63 63 W 12 19 30.04 1017 10 16 0.00 0.00
9:51 pm 21:51 Cloudy with Nearby Thunderstorms 66 18.9 56 13.3 70 70 ESE 3 6 30.08 1019 9 14 0.01 0.13
10:09 pm 22:09 Cloudy with Light Rain 63 17.2 61 16.1 93 93 NNW 6 9 30.08 1019 10 16 0.02 0.51
10:51 pm 22:51 Cloudy 65 18.3 58 14.4 78 78 E 9 15 30.07 1018 10 16 0.02 0.51
11:51 pm 23:51 Mostly Clear 62 16.7 56 13.3 80 80 SE 16 26 30.11 1020 10 16 0.00 0.00

Powered by AerisWeather